Location: Unspecified
(0.0000°N, 0.0000°E)
Time: 01:21:05
(UTC+00:00)

STARLINK-1037 - Pass Details

Date: 06 December 2020
Orbit: 544 x 546 km, 53.0° (Epoch: 16 January)

Event Time Altitude Azimuth Distance (km) Brightness Sun altitude
Rises 18:24:45 0° 338° (NNW) 2,691 7.1 -7.7°
Reaches altitude 10° 18:27:03 10° 345° (NNW) 1,801 6.2 -8.2°
Maximum altitude 18:30:55 41° 56° (NE) 796 4.0 -9.1°
Drops below altitude 10° 18:34:48 10° 127° (SE) 1,807 6.0 -10.0°
Sets 18:37:07 0° 134° (SE) 2,701 6.9 -10.5°
